Weather History for Charlottesville, VA

Change the Weather History Date:

Wednesday, March 6, 2013

  Actual Average Record
Temperature  
Mean Temperature 39 °F 43 °F  
Max Temperature 45 °F 54 °F 81 °F (1961)
Min Temperature 32 °F 32 °F 12 °F (1901)
Degree Days  
Heating Degree Days 26 22  
Month to date heating degree days 163 138  
Since 1 July heating degree days 3220 3550  
Cooling Degree Days 0 0  
Month to date cooling degree days 0 0  
Year to date cooling degree days 0 0  
Moisture  
Dew Point 31 °F    
Average Humidity 88    
Maximum Humidity 100    
Minimum Humidity 76    
Precipitation  
Precipitation T in 0.10 in 2.74 in (2011)
Month to date precipitation 0.16 0.59  
Year to date precipitation 6.60 6.06  
Sea Level Pressure  
Sea Level Pressure 29.70 in    
Wind  
Wind Speed 12 mph (North)    
Max Wind Speed 18 mph    
Max Gust Speed 28 mph    
Visibility 3 miles    
Events Fog , Rain , Snow    
T = Trace of Precipitation, MM = Missing Value Source: NWS Daily Summary

Daily Weather History Graph

Daily Weather History Graph

Search for Another Location

Airport:

Trip Planner

Search our weather history database for the weather conditions in past years. The results will help you decide how hot, cold, wet, or windy it might be!

Date:

Astronomy

Mar. 06, 2013 Rise Set
Actual Time 6:38 AM EST 6:12 PM EST
Civil Twilight 6:11 AM EST 6:38 PM EST
Nautical Twilight 5:41 AM EST 7:09 PM EST
Astronomical Twilight 5:10 AM EST 7:40 PM EST
Moon 2:41 AM EST (3/6) 12:56 PM EST (3/6)
Length of Visible Light 12h 27m
Length of Day
11h 34m
Waning Crescent, 30% of the Moon is Illuminated
Mar 6
Waning Crescent
Mar 11
New
Mar 19
First Quarter
Mar 27
Full
Apr 3
Last Quarter

Hourly Weather History & Observations

Time (EST) Temp. Windchill Dew Point Humidity Pressure Visibility Wind Dir Wind Speed Gust Speed Precip Events Conditions
12:53 AM 32.0 °F 23.0 °F 30.9 °F 96% 29.70 in 0.8 mi NE 11.5 mph - 0.00 in Snow Light Snow
1:53 AM 32.0 °F 21.6 °F 30.9 °F 96% 29.64 in 1.0 mi NNE 15.0 mph - 0.00 in Snow Light Snow
2:07 AM 32.0 °F 21.6 °F 30.2 °F 93% 29.62 in 0.8 mi NNE 15.0 mph 23.0 mph 0.00 in Snow Light Snow
2:14 AM 32.0 °F 21.6 °F 30.2 °F 93% 29.62 in 1.0 mi NNE 15.0 mph 25.3 mph 0.00 in Snow Light Snow
2:46 AM 32.0 °F 22.5 °F 30.2 °F 93% 29.62 in 0.5 mi NNE 12.7 mph - 0.00 in Fog , Snow Snow
2:53 AM 32.0 °F 23.0 °F 30.9 °F 96% 29.62 in 0.2 mi NNE 11.5 mph - 0.00 in Fog , Snow Heavy Snow
3:53 AM 32.0 °F 23.6 °F 30.9 °F 96% 29.60 in 0.8 mi North 10.4 mph 16.1 mph 0.00 in Snow Light Snow
4:53 AM 32.0 °F 25.6 °F 30.9 °F 96% 29.59 in 0.5 mi North 6.9 mph - 0.00 in Fog , Snow Snow
5:45 AM 32.0 °F 24.2 °F 30.2 °F 93% 29.58 in 0.8 mi North 9.2 mph 17.3 mph 0.00 in Snow Light Snow
5:53 AM 32.0 °F 24.8 °F 30.9 °F 96% 29.58 in 0.8 mi North 8.1 mph - 0.00 in Snow Light Snow
6:07 AM 32.0 °F 24.8 °F 30.2 °F 93% 29.57 in 1.0 mi NNW 8.1 mph - 0.00 in Snow Light Snow
6:53 AM 32.0 °F 25.6 °F 32.0 °F 100% 29.58 in 1.2 mi NNW 6.9 mph - 0.00 in Snow Light Snow
7:20 AM 32.0 °F 24.8 °F 30.2 °F 93% 29.57 in 1.2 mi NNW 8.1 mph - 0.00 in Snow Light Snow
7:38 AM 32.0 °F 23.6 °F 32.0 °F 100% 29.58 in 0.8 mi NNW 10.4 mph - 0.00 in Snow Light Snow
7:45 AM 33.8 °F 26.4 °F 30.2 °F 87% 29.58 in 0.5 mi NNW 9.2 mph 16.1 mph 0.00 in Fog , Snow Snow
7:53 AM 32.0 °F 24.2 °F 30.9 °F 96% 29.59 in 0.2 mi NNW 9.2 mph - 0.00 in Fog , Snow Heavy Snow
8:02 AM 33.8 °F 25.8 °F 30.2 °F 87% 29.58 in 0.2 mi NNW 10.4 mph - 0.00 in Fog , Snow Heavy Snow
8:46 AM 33.8 °F 27.0 °F 30.2 °F 87% 29.59 in 0.5 mi NNW 8.1 mph - 0.00 in Fog , Snow Snow
8:53 AM 33.1 °F - 30.9 °F 92% 29.60 in 0.5 mi North - - 0.00 in Fog , Snow Snow
8:55 AM 33.8 °F 25.3 °F 30.2 °F 87% 29.58 in - North 11.5 mph - N/A   Unknown
9:17 AM 33.8 °F 25.3 °F 30.2 °F 87% 29.58 in 0.2 mi North 11.5 mph - N/A Fog , Snow Heavy Snow
9:53 AM 33.8 °F 25.3 °F 30.2 °F 87% 29.60 in 0.2 mi North 11.5 mph - N/A Fog , Snow Heavy Snow
10:00 AM - - - N/A% 29.59 in - North - - N/A   Unknown
10:07 AM 33.8 °F 26.4 °F 30.2 °F 87% 29.60 in 1.0 mi NNW 9.2 mph - N/A Snow Heavy Snow
10:53 AM 33.8 °F 26.4 °F 30.2 °F 87% 29.62 in 1.0 mi NNW 9.2 mph - N/A Snow Heavy Snow
11:00 AM - - - N/A% 29.62 in - North - - N/A   Unknown
11:12 AM 33.8 °F 26.4 °F 32.0 °F 93% 29.63 in 1.0 mi North 9.2 mph - N/A Snow Heavy Snow
11:53 AM 33.8 °F 26.4 °F 32.0 °F 93% 29.66 in 1.0 mi North 9.2 mph - N/A Snow Heavy Snow
12:53 PM 33.8 °F 25.8 °F 32.0 °F 93% 29.69 in 1.0 mi NNE 10.4 mph - N/A Snow Snow
1:00 PM 33.8 °F 25.3 °F 33.8 °F 100% 29.68 in 2.0 mi NNE 11.5 mph - N/A Snow Light Snow
1:53 PM 33.8 °F 25.3 °F 30.2 °F 87% 29.73 in 3.0 mi NNE 11.5 mph - N/A Rain Light Rain
2:53 PM 37.4 °F 28.9 °F 33.8 °F 87% 29.78 in 5.0 mi North 13.8 mph 23.0 mph N/A Rain Light Rain
3:53 PM 37.4 °F 28.9 °F 33.8 °F 87% 29.84 in 8.0 mi North 13.8 mph 23.0 mph N/A Rain Light Rain
4:00 PM 39.2 °F 30.8 °F 32.0 °F 75% 29.83 in 10.0 mi NNE 15.0 mph 27.6 mph N/A Rain Light Rain
4:53 PM 39.2 °F 30.8 °F 32.0 °F 75% 29.88 in 10.0 mi NNE 15.0 mph 27.6 mph N/A Rain Light Rain
5:53 PM 39.2 °F 31.2 °F 32.0 °F 75% 29.93 in 10.0 mi North 13.8 mph 25.3 mph N/A   Mostly Cloudy
6:53 PM 39.2 °F 31.2 °F 32.0 °F 75% 29.96 in 10.0 mi North 13.8 mph 25.3 mph N/A   Mostly Cloudy
7:53 PM 39.2 °F 32.0 °F 32.0 °F 75% 29.97 in 10.0 mi North 11.5 mph 23.0 mph N/A   Mostly Cloudy
8:53 PM 39.2 °F 32.0 °F 32.0 °F 75% 29.97 in 10.0 mi North 11.5 mph 23.0 mph N/A   Mostly Cloudy
9:53 PM 39.2 °F 31.2 °F 32.0 °F 75% 30.01 in 10.0 mi North 13.8 mph 25.3 mph N/A   Scattered Clouds
10:53 PM 35.6 °F 26.6 °F 32.0 °F 87% 30.02 in 10.0 mi NNW 13.8 mph 25.3 mph N/A   Scattered Clouds
11:53 PM - - - N/A% 30.02 in - North - - N/A   Unknown